Details for BMI Regional at EGNX




Go Back


Latest METAR
Local Time

EGNX 240750Z 04010KT 360V090 8000 BKN007 09/08 Q1024

24/05/2018, 08:56:17

Description
Results
BMI Regional Logo
Number of Pilots based at EGNX
1 Pilots Based here
Number of BMI Regional Flights Departed from EGNX
0 Flights Departed
Number of BMI Regional Flights Arrived at EGNX
0 Flights Arrived
Number of BMI Regional Schedules Departing from EGNX
2 Schedules
Number of BMI Regional Schedules Arriving at EGNX
2 Schedules
Number of BMI Regional Schedules Departing from EGNX availible today
2 Schedules Today
Number of BMI Regional Schedules Arriving at EGNX availible today
2 Schedules Today
Average Landing Rate at EGNX
-225 fpm
BMI Regional Average Landing Rate at EGNX
0 fpm
Total Fuel Purchased at EGNX by BMI Regional
0.00 kgs / 0.00 lbs

Pilots Based at EGNX


Pilot ID
Pilot Name
Pilot Rank
No. of Flights
No. of Flying Hours
Guy Hall
255
349.15
Content